San Salvador, El Salvador

5:47 PM CST en Abril 22, 2018 (GMT -0600)
Ilopango International

Tiempo Historia de MSSS - Enero, 2018

Change the Weather History Date:

Domingo, Enero 14, 2018

  Actual Average Record
Temperature  
Temperatura media 66 ° F -  
Temperatura máxima 77 ° F 87 ° F 93 ° F (2015)
Temperatura mínima 55 ° F 61 ° F 55 ° F (2018)
Cooling Degree Days 1    
Growing Degree Days 16 (Base 50)    
Moisture  
Punto de rocío 46 ° F    
Average Humidity 45    
Maximum Humidity 59    
Minimum Humidity 30    
Precipitación  
Precipitación 0.00 pul 0.00 pul - ()
Presión al nivel del mar  
Presión al nivel del mar 30.07 pul    
Viento  
Velocidad del viento 13 mph ()    
Velocidad máxima del viento 22 mph    
Max Gust Speed 29 mph    
Visibilidad 17.8 Millas    
Eventos      
Averages and records for this station are not official NWS values.
T = Trace of Precipitation, MM = Missing Value Source: Averaged Metar Reports

Daily Weather History Graph

Daily Weather History Graph

Search for Another Location

Airport or City:

Astronomía

Jan. 14, 2018 Salida Puesta
Hora real 6:23 AM CST 5:47 PM CST
Crepúsculo civil 6:00 AM CST 6:10 PM CST
Crepúsculo náutico 5:34 AM CST 6:36 PM CST
Crepúsculo astronómico 5:08 AM CST 7:02 PM CST
Luna 4:21 AM CST (1/14) 4:03 PM CST (1/14)
Horas de luz 12h 09m
Horas de luz
11h 24m
Creciente menguante, 5% of the Moon is Illuminated
Ene 14
Creciente menguante
Ene 16
Nueva
Ene 24
Cuarto creciente
Ene 31
Luna llena
Feb 7
Cuarto menguante

Hourly Weather History & Observations

Hora (CST) Temp. Punto de rocío Humedad Presión Visibilidad Wind Dir Velocidad del viento Velocidad de ráfagas Precip Eventos Condiciones
5:40 AM 62 ° F 49 ° F 52% 30.05 pul 12 mi NNO 11.5 mph - -  
5:50 AM 62.6 ° F 48.2 ° F 59% 29.83 pul - NNO 11.5 mph - N/A   Despejado
6:50 AM 60.8 ° F 46.4 ° F 59% 30.12 pul - Norte 10.4 mph - N/A   Despejado
7:50 AM 64.4 ° F 46.4 ° F 52% 30.15 pul - Norte 17.3 mph - N/A   Despejado
8:40 AM 67 ° F 47 ° F 37% 30.09 pul 19 mi NNO 19.6 mph - -   Nubes dispersas
8:50 AM 66.2 ° F 46.4 ° F 49% 30.15 pul - NNO 19.6 mph - N/A   Despejado
9:50 AM 69.8 ° F 48.2 ° F 46% 30.15 pul - NNO 20.7 mph - N/A   Despejado
10:50 AM 71.6 ° F 46.4 ° F 41% 30.15 pul - Norte 15.0 mph 28.8 mph N/A   Despejado
11:40 AM 73 ° F 48 ° F 30% 30.05 pul 19 mi Norte 16.1 mph - -  
11:50 AM 73.4 ° F 48.2 ° F 41% 30.09 pul - Norte 16.1 mph - N/A   Despejado
12:50 PM 75.2 ° F 46.4 ° F 36% 30.06 pul - Norte 20.7 mph - N/A   Despejado
1:50 PM 77.0 ° F 46.4 ° F 34% 30.04 pul - Norte 13.8 mph 28.8 mph N/A   Despejado
2:40 PM 58 ° F 45 ° F 53%  pul 19 mi Norte 16.1 mph - -  
2:50 PM 75.2 ° F 44.6 ° F 34% 30.01 pul - Norte 16.1 mph - N/A   Despejado
3:50 PM 75.2 ° F 46.4 ° F 36% 30.01 pul - Norte 10.4 mph - N/A   Despejado
4:50 PM 71.6 ° F 46.4 ° F 41% 30.01 pul - Norte 18.4 mph - N/A   Despejado
5:40 PM 67 ° F 45 ° F 34% 30.01 pul 19 mi Norte 9.2 mph - -  
5:50 PM 68.0 ° F 44.6 ° F 43% 30.04 pul - Norte 9.2 mph 21.9 mph N/A   Despejado
6:00 PM 67 ° F 45 ° F 34%  pul 19 mi Norte 9.2 mph - -  
6:50 PM 64.4 ° F 44.6 ° F 49% 30.04 pul - NNO 21.9 mph - N/A   Despejado
7:50 PM 64.4 ° F 44.6 ° F 49% 30.06 pul - NNO 13.8 mph - N/A   Despejado
9:50 PM 62.6 ° F 44.6 ° F 52% 30.12 pul - Norte 13.8 mph - N/A   Despejado
10:50 PM 60.8 ° F 44.6 ° F 55% 30.12 pul - Norte 11.5 mph - N/A   Despejado
11:50 PM 60.8 ° F 44.6 ° F 55% 30.12 pul - Norte 17.3 mph - N/A   Despejado